Temp
-11 -11 -11 -11 -11 -11 -11 -11 -11 -11 -11 -11 -12 -11 -11 -11 -11 -11 -12 -12 -12 -13 -14 -14 -14 -13 -12 -11 -10 -9 -9 -9 -9 -9 -8 -8 -8 -7 -8 -7 -7 -8 -8
-11 -11 -11 -11 -11 -11 -11 -11 -11 -11 -12 -12 -12 -12 -12 -12 -12 -12 -12 -12 -12 -13 -15 -14 -15 -13 -11 -11 -10 -10 -9 -9 -9 -9 -9 -8 -8 -8 -8 -8 -8 -8 -8
-11 -12 -12 -12 -12 -12 -11 -11 -12 -12 -12 -12 -12 -12 -12 -12 -12 -12 -12 -12 -13 -13 -14 -14 -14 -14 -11 -12 -10 -10 -10 -10 -9 -9 -9 -8 -8 -8 -9 -9 -8 -8 -8
-12 -12 -12 -12 -12 -12 -12 -12 -12 -12 -12 -12 -12 -13 -12 -12 -12 -12 -12 -12 -13 -13 -14 -14 -13 -13 -12 -12 -11 -10 -10 -10 -10 -9 -9 -9 -9 -9 -9 -9 -9 -9 -8
-12 -12 -13 -13 -13 -13 -12 -12 -13 -13 -13 -13 -13 -13 -13 -13 -13 -13 -12 -12 -13 -13 -13 -14 -13 -12 -13 -13 -11 -11 -10 -10 -9 -10 -9 -9 -9 -9 -9 -9 -9 -9 -9
-13 -13 -13 -14 -14 -13 -13 -13 -13 -13 -13 -13 -13 -13 -13 -13 -13 -13 -13 -13 -13 -13 -13 -13 -13 -12 -12 -14 -12 -11 -12 -12 -11 -10 -10 -9 -9 -9 -9 -9 -9 -9 -9
-13 -13 -14 -14 -14 -14 -14 -14 -14 -14 -14 -14 -14 -14 -14 -14 -14 -14 -14 -13 -13 -13 -12 -13 -13 -13 -12 -12 -13 -12 -11 -13 -12 -11 -10 -10 -9 -10 -9 -9 -10 -10 -9
-14 -14 -14 -14 -14 -14 -14 -14 -14 -14 -14 -14 -14 -14 -14 -14 -14 -14 -14 -14 -13 -13 -13 -13 -12 -13 -13 -12 -11 -13 -12 -12 -12 -11 -12 -10 -10 -10 -10 -9 -9 -10 -10
-14 -14 -14 -14 -15 -15 -15 -15 -14 -14 -15 -15 -15 -15 -15 -15 -15 -15 -15 -15 -14 -14 -13 -13 -13 -12 -13 -13 -12 -11 -12 -13 -12 -12 -12 -11 -11 -10 -10 -10 -10 -9 -10
-15 -15 -15 -15 -15 -15 -15 -15 -15 -15 -15 -15 -15 -16 -16 -16 -16 -16 -16 -16 -15 -15 -14 -14 -14 -13 -13 -13 -13 -13 -12 -13 -13 -12 -12 -13 -12 -11 -11 -10 -10 -10 -9
-16 -15 -15 -16 -15 -15 -15 -16 -16 -16 -16 -16 -16 -16 -16 -16 -17 -17 -17 -16 -16 -16 -16 -15 -15 -15 -14 -13 -13 -13 -14 -14 -13 -13 -13 -12 -13 -12 -12 -11 -11 -11 -10
-16 -16 -16 -16 -16 -16 -16 -16 -17 -17 -17 -17 -17 -17 -17 -17 -17 -17 -17 -17 -17 -17 -17 -17 -17 -16 -15 -15 -14 -14 -14 -15 -15 -13 -12 -14 -12 -13 -13 -13 -11 -11 -11
-16 -17 -17 -17 -17 -17 -17 -18 -18 -18 -18 -18 -18 -18 -18 -18 -18 -18 -18 -18 -18 -18 -18 -18 -18 -18 -18 -17 -16 -16 -16 -16 -16 -17 -15 -12 -14 -13 -13 -13 -13 -11 -11
-17 -17 -18 -19 -19 -18 -18 -18 -19 -19 -19 -18 -18 -18 -18 -18 -18 -18 -19 -19 -19 -19 -19 -19 -19 -19 -19 -19 -18 -17 -18 -18 -17 -17 -17 -15 -12 -14 -13 -13 -14 -13 -11
-18 -19 -19 -19 -19 -20 -20 -20 -19 -19 -19 -19 -19 -19 -19 -19 -19 -19 -19 -20 -20 -20 -20 -20 -20 -20 -20 -20 -19 -19 -20 -20 -19 -18 -19 -17 -15 -14 -15 -15 -14 -13 -11
-19 -20 -20 -20 -20 -20 -20 -20 -20 -20 -20 -20 -20 -20 -20 -20 -20 -20 -21 -21 -21 -21 -21 -21 -21 -21 -22 -22 -22 -22 -23 -22 -21 -20 -20 -19 -18 -16 -14 -14 -15 -14 -13
-20 -21 -21 -20 -20 -20 -20 -20 -21 -21 -21 -21 -21 -21 -21 -21 -22 -22 -22 -22 -22 -22 -22 -23 -24 -24 -24 -24 -25 -25 -24 -24 -23 -22 -21 -21 -20 -18 -17 -14 -13 -14 -13
-21 -21 -21 -21 -21 -21 -21 -21 -21 -22 -22 -22 -22 -22 -22 -23 -22 -22 -22 -23 -23 -24 -25 -26 -26 -26 -26 -26 -26 -26 -25 -25 -24 -23 -22 -22 -22 -20 -18 -16 -13 -13 -14
-21 -21 -22 -22 -22 -22 -22 -22 -22 -23 -23 -23 -23 -23 -24 -24 -24 -24 -24 -24 -25 -26 -27 -27 -27 -27 -27 -27 -27 -27 -26 -26 -25 -24 -24 -23 -23 -22 -20 -18 -16 -14 -13
-22 -22 -22 -22 -23 -23 -23 -23 -23 -24 -24 -24 -24 -24 -25 -25 -25 -25 -26 -26 -27 -28 -28 -27 -27 -27 -27 -27 -27 -27 -27 -27 -26 -25 -25 -24 -23 -23 -22 -19 -18 -15 -13
-23 -22 -23 -24 -24 -24 -24 -24 -24 -25 -26 -25 -26 -26 -26 -27 -28 -28 -27 -27 -28 -28 -28 -28 -28 -28 -28 -28 -28 -28 -28 -28 -27 -26 -25 -25 -24 -24 -23 -22 -19 -18 -17
-24 -24 -24 -25 -25 -25 -26 -26 -27 -27 -27 -27 -27 -27 -27 -28 -28 -28 -28 -28 -28 -29 -29 -29 -29 -29 -28 -28 -28 -28 -28 -28 -28 -28 -27 -25 -25 -24 -24 -23 -20 -20 -19
-25 -25 -25 -26 -26 -27 -27 -27 -28 -28 -28 -28 -28 -28 -29 -29 -29 -29 -28 -29 -30 -29 -29 -29 -29 -29 -29 -29 -29 -29 -29 -29 -29 -29 -28 -27 -26 -25 -25 -24 -22 -20 -20
-26 -27 -27 -27 -27 -27 -28 -28 -28 -28 -29 -29 -29 -29 -29 -29 -29 -29 -30 -30 -30 -30 -30 -29 -30 -29 -29 -29 -29 -29 -29 -29 -29 -29 -29 -28 -27 -26 -25 -24 -23 -21 -20
-28 -28 -28 -28 -29 -28 -29 -29 -29 -29 -29 -29 -29 -29 -30 -30 -31 -31 -31 -31 -30 -30 -30 -30 -30 -30 -30 -30 -30 -30 -30 -30 -30 -30 -30 -29 -28 -27 -26 -25 -24 -23 -20
-28 -29 -29 -29 -29 -29 -29 -29 -30 -30 -30 -30 -30 -31 -31 -31 -31 -31 -31 -31 -31 -31 -30 -30 -30 -30 -31 -31 -31 -30 -30 -30 -30 -30 -30 -29 -29 -28 -27 -25 -24 -24 -21
Height
5797 5796 5794 5793 5792 5790 5789 5789 5787 5786 5784 5782 5779 5776 5772 5770 5765 5761 5752 5741 5723 5718 5712 5718 5731 5747 5759 5768 5776 5785 5797 5806 5812 5816 5821 5828 5835 5840 5845 5850 5855 5859 5863
5788 5786 5785 5784 5782 5780 5780 5780 5779 5778 5776 5775 5773 5770 5767 5764 5760 5752 5746 5740 5733 5717 5708 5710 5724 5738 5747 5758 5766 5773 5782 5792 5798 5805 5809 5816 5823 5830 5838 5843 5848 5853 5857
5776 5776 5775 5774 5773 5772 5771 5771 5771 5770 5768 5767 5766 5763 5760 5757 5753 5748 5743 5736 5727 5717 5705 5704 5717 5730 5737 5745 5754 5762 5769 5778 5785 5791 5796 5802 5811 5822 5830 5835 5839 5843 5847
5766 5765 5765 5765 5764 5763 5763 5763 5762 5761 5760 5759 5757 5756 5753 5751 5748 5743 5738 5733 5726 5718 5707 5702 5712 5724 5719 5733 5742 5751 5759 5767 5774 5780 5785 5790 5800 5809 5819 5823 5828 5833 5838
5754 5754 5755 5755 5755 5755 5754 5753 5753 5752 5750 5749 5748 5746 5744 5741 5738 5736 5732 5726 5723 5717 5710 5705 5705 5717 5720 5721 5731 5738 5744 5754 5763 5766 5772 5778 5783 5794 5804 5814 5818 5821 5829
5743 5743 5744 5745 5746 5745 5745 5743 5742 5741 5740 5739 5737 5736 5734 5732 5729 5727 5725 5721 5717 5714 5711 5708 5705 5709 5715 5718 5720 5727 5732 5741 5749 5753 5759 5766 5771 5779 5790 5800 5806 5811 5816
5733 5734 5735 5736 5736 5735 5733 5732 5730 5730 5729 5728 5727 5726 5724 5722 5719 5716 5714 5713 5710 5709 5708 5706 5705 5705 5709 5715 5715 5715 5722 5730 5735 5741 5747 5752 5760 5766 5773 5782 5791 5798 5803
5723 5724 5725 5726 5725 5723 5721 5720 5720 5719 5719 5718 5716 5715 5713 5712 5711 5708 5706 5706 5704 5703 5701 5699 5700 5701 5701 5704 5706 5705 5707 5715 5722 5725 5730 5740 5747 5752 5757 5764 5771 5777 5788
5713 5714 5715 5715 5713 5711 5711 5710 5709 5708 5707 5706 5705 5703 5702 5701 5700 5698 5696 5695 5695 5694 5693 5692 5691 5692 5693 5693 5694 5693 5694 5700 5707 5710 5714 5723 5731 5739 5743 5750 5755 5760 5769
5702 5703 5703 5702 5700 5700 5699 5698 5697 5696 5695 5693 5692 5691 5689 5688 5687 5686 5685 5684 5684 5684 5684 5683 5682 5679 5678 5680 5681 5679 5678 5685 5690 5695 5699 5710 5713 5720 5728 5735 5740 5745 5755
5692 5692 5691 5691 5690 5688 5686 5685 5684 5684 5682 5680 5679 5677 5676 5675 5674 5674 5672 5670 5670 5670 5670 5669 5669 5667 5664 5662 5661 5661 5662 5664 5671 5675 5682 5690 5698 5703 5710 5722 5728 5732 5738
5678 5677 5677 5678 5677 5674 5673 5672 5670 5669 5668 5667 5665 5663 5662 5661 5659 5658 5657 5656 5653 5652 5651 5651 5650 5650 5648 5646 5645 5644 5645 5645 5649 5656 5659 5669 5676 5687 5692 5702 5715 5719 5725
5663 5663 5662 5663 5661 5659 5659 5657 5655 5654 5654 5652 5651 5649 5648 5645 5643 5640 5638 5637 5636 5634 5633 5632 5631 5631 5631 5629 5627 5626 5626 5630 5630 5633 5638 5646 5654 5665 5676 5679 5692 5705 5710
5647 5646 5648 5646 5646 5645 5643 5641 5639 5637 5637 5636 5634 5632 5630 5627 5625 5622 5620 5618 5617 5615 5613 5612 5611 5611 5610 5609 5608 5607 5606 5608 5612 5614 5619 5621 5632 5642 5653 5659 5674 5685 5692
5629 5629 5629 5628 5627 5626 5625 5625 5622 5620 5619 5618 5616 5613 5612 5609 5607 5604 5600 5599 5596 5595 5592 5591 5590 5589 5588 5587 5586 5586 5586 5588 5591 5592 5595 5602 5607 5615 5630 5640 5652 5668 5675
5616 5615 5613 5612 5611 5609 5607 5605 5604 5602 5601 5599 5596 5594 5592 5589 5587 5584 5581 5579 5577 5574 5571 5569 5569 5566 5564 5563 5563 5564 5566 5567 5570 5573 5574 5581 5586 5592 5602 5618 5632 5645 5656
5602 5599 5597 5596 5595 5592 5589 5588 5584 5582 5581 5578 5575 5573 5571 5569 5566 5564 5561 5558 5556 5553 5550 5547 5546 5545 5543 5542 5543 5543 5545 5548 5549 5552 5556 5559 5565 5572 5578 5589 5609 5630 5636
5583 5581 5580 5579 5576 5573 5571 5568 5564 5561 5560 5556 5553 5551 5548 5546 5545 5542 5538 5536 5534 5531 5529 5527 5525 5525 5523 5522 5522 5524 5526 5528 5529 5531 5534 5538 5544 5550 5558 5566 5584 5608 5617
5565 5562 5559 5557 5554 5551 5549 5546 5544 5541 5538 5534 5531 5528 5527 5524 5521 5519 5517 5514 5511 5508 5507 5507 5506 5505 5504 5502 5502 5503 5504 5506 5509 5510 5514 5518 5523 5530 5538 5548 5556 5573 5600
5542 5540 5536 5535 5533 5530 5527 5526 5523 5519 5516 5511 5508 5506 5503 5500 5498 5496 5493 5490 5488 5487 5485 5485 5485 5485 5485 5482 5482 5481 5481 5484 5488 5490 5494 5498 5503 5509 5516 5525 5535 5549 5568
5518 5516 5514 5511 5508 5505 5503 5502 5499 5496 5492 5490 5486 5483 5480 5477 5474 5473 5471 5468 5466 5464 5463 5463 5463 5463 5462 5462 5461 5460 5460 5462 5464 5468 5473 5477 5482 5488 5495 5502 5514 5528 5541
5491 5491 5488 5486 5483 5481 5479 5477 5474 5472 5470 5468 5464 5460 5458 5454 5452 5450 5446 5444 5442 5440 5439 5439 5440 5440 5441 5442 5441 5440 5439 5440 5442 5445 5448 5454 5460 5467 5476 5484 5494 5506 5518
5467 5466 5464 5462 5460 5456 5454 5453 5451 5448 5445 5442 5439 5436 5433 5431 5428 5426 5423 5420 5417 5418 5418 5418 5418 5418 5419 5420 5419 5419 5419 5420 5420 5424 5427 5431 5438 5445 5455 5465 5472 5484 5500
5443 5441 5440 5438 5436 5434 5431 5428 5426 5424 5422 5418 5415 5412 5408 5405 5403 5400 5397 5396 5394 5395 5397 5397 5398 5398 5399 5398 5397 5397 5396 5398 5400 5402 5406 5411 5416 5425 5435 5444 5453 5462 5479
5420 5418 5416 5414 5413 5411 5409 5406 5403 5400 5397 5393 5390 5386 5384 5380 5377 5376 5374 5374 5374 5373 5375 5375 5374 5374 5375 5374 5373 5373 5374 5376 5378 5381 5386 5391 5396 5404 5415 5425 5433 5444 5457
5396 5395 5394 5391 5389 5386 5383 5379 5376 5374 5371 5368 5364 5360 5359 5356 5354 5353 5353 5351 5351 5349 5349 5350 5348 5348 5348 5349 5349 5350 5352 5354 5356 5359 5365 5370 5376 5383 5393 5404 5413 5423 5435
Wind_Speed
33 32 33 33 35 33 30 30 32 34 35 35 35 36 37 39 41 43 45 49 58 45 48 77 90 83 83 78 79 66 69 70 64 64 65 62 57 56 55 52 47 43 40
37 36 36 36 35 34 33 31 32 35 36 37 36 36 38 38 40 43 43 43 47 49 33 62 84 80 68 69 77 74 66 69 68 71 71 68 64 59 57 54 51 47 44
41 39 39 37 36 34 31 32 33 35 37 38 37 36 37 39 40 42 42 42 44 47 33 39 78 84 72 59 76 79 77 77 69 69 76 75 70 61 59 56 54 52 50
43 42 40 38 36 33 31 33 35 36 38 39 38 38 39 39 39 40 42 42 41 42 41 27 66 86 96 63 63 79 80 78 76 77 69 71 71 66 64 61 57 57 55
44 42 39 36 32 30 33 35 36 37 39 38 38 39 39 40 41 41 42 43 41 39 39 33 42 79 94 83 60 63 62 75 77 87 81 79 79 73 68 65 63 60 57
40 39 37 33 31 33 36 39 39 36 36 38 39 41 42 42 43 42 41 43 43 39 35 33 26 57 87 90 79 64 55 61 73 70 79 81 75 73 75 69 66 63 62
38 37 34 32 34 36 38 39 39 39 39 40 42 43 43 44 44 44 44 43 43 42 37 31 28 24 68 91 99 75 65 62 67 68 80 87 82 81 78 74 68 68 67
41 40 38 36 37 37 38 39 40 42 43 43 44 45 44 43 43 44 46 44 44 42 42 38 32 29 27 69 95 101 88 69 71 72 67 78 84 88 80 75 76 74 72
42 41 39 37 38 41 39 41 42 44 46 45 45 46 44 45 46 46 47 47 45 45 45 47 46 41 37 34 64 97 102 100 70 65 63 78 81 81 83 80 78 76 78
44 42 39 39 40 40 42 44 45 46 47 47 46 47 46 45 46 46 47 47 49 50 50 51 54 56 52 49 47 53 87 97 103 84 72 69 76 79 72 86 85 82 81
41 41 41 41 42 45 48 49 49 48 48 49 49 49 48 49 48 49 50 53 55 56 57 58 58 59 60 59 60 57 57 71 101 110 102 81 76 71 64 70 81 80 82
43 44 44 44 47 51 51 49 50 50 51 50 51 50 51 52 53 53 56 58 59 58 58 58 59 60 65 67 68 68 64 65 60 103 113 113 93 74 66 65 78 85 72
48 48 50 49 52 52 52 51 52 52 52 51 52 54 55 57 59 61 61 60 61 60 60 59 61 63 65 70 72 75 73 67 67 58 75 98 118 89 76 65 67 84 85
54 54 51 51 52 53 55 54 54 55 55 57 59 60 62 63 63 63 63 62 61 62 62 63 64 63 64 68 72 77 77 71 69 65 59 72 107 122 98 88 77 80 84
57 55 54 57 57 55 54 55 57 60 61 62 62 65 65 65 63 63 64 64 63 64 65 65 65 65 65 67 72 77 76 71 66 70 60 62 74 97 113 104 100 85 88
58 59 59 56 57 58 60 61 62 63 64 65 65 66 64 63 65 65 64 63 63 65 66 66 66 67 66 69 71 71 68 66 62 67 66 62 64 74 99 110 115 90 97
58 58 59 61 63 65 67 67 68 68 66 65 65 64 64 64 64 64 64 62 62 63 64 66 66 63 62 64 62 63 63 58 59 66 63 62 63 68 78 95 113 101 80
62 65 66 67 68 70 72 72 70 67 66 68 67 67 66 65 66 67 66 65 64 65 64 60 58 59 61 63 63 63 61 59 58 63 63 61 60 64 72 86 101 99 75
68 68 70 72 73 74 72 69 68 69 69 68 68 69 67 68 66 66 67 68 69 64 59 61 61 60 60 60 61 61 62 63 59 59 62 62 59 58 66 80 92 104 115
75 76 76 75 73 70 72 72 71 68 67 68 70 70 71 71 70 70 69 72 73 63 63 65 63 63 62 61 60 61 58 62 67 66 63 62 61 58 61 72 83 96 110
80 78 76 73 69 73 75 73 72 72 71 70 70 73 75 73 73 72 74 71 67 65 67 65 65 64 64 63 62 63 60 63 62 61 67 64 63 61 61 66 80 85 92
81 76 76 73 73 75 74 72 71 74 76 76 77 78 77 75 77 75 72 75 70 70 71 68 65 66 67 65 64 65 66 61 56 55 61 63 64 64 60 62 72 83 92
84 77 73 71 75 77 74 72 77 79 76 77 79 78 77 75 80 79 75 71 72 66 64 63 61 61 62 64 66 69 70 66 61 56 55 60 63 64 62 62 68 79 93
80 75 74 75 78 79 77 78 76 78 81 78 80 82 78 81 74 69 69 69 63 63 60 59 61 60 65 69 71 71 73 70 65 60 57 57 60 63 64 61 67 72 92
80 76 76 74 69 72 74 75 82 85 77 77 83 86 79 70 69 69 64 62 61 63 64 68 71 71 71 74 73 71 67 66 66 64 63 59 59 60 64 63 65 69 89
78 79 72 75 79 84 86 84 80 80 82 83 79 72 69 69 70 67 66 67 69 73 78 77 77 79 80 75 69 66 64 64 67 69 65 62 60 60 63 64 67 71 82
Wind_Direction
291 286 283 282 283 286 283 281 283 289 293 297 299 302 307 313 320 322 329 333 341 318 252 224 216 208 217 218 219 218 224 227 228 234 233 232 227 228 233 235 235 234 235
290 288 284 281 283 285 281 280 283 287 291 294 296 300 302 308 316 321 329 333 334 337 274 232 218 209 207 222 223 218 218 226 229 236 234 234 232 230 232 234 236 236 237
287 285 281 280 282 281 277 282 284 286 288 291 291 296 300 306 312 317 322 330 334 339 319 249 221 213 208 219 216 221 221 222 228 230 236 235 235 233 234 234 236 235 235
284 282 279 279 281 275 277 283 285 285 286 288 289 293 297 301 305 313 316 323 329 335 343 290 229 217 219 215 217 219 220 224 231 234 228 237 237 237 234 233 234 236 235
281 279 278 279 277 274 279 282 284 284 286 286 289 292 295 299 303 307 311 316 322 328 334 335 245 227 227 220 221 216 217 224 228 231 232 237 242 236 236 236 234 235 236
278 279 281 280 279 280 280 281 282 283 284 287 289 290 294 297 300 303 307 309 313 320 322 328 321 236 233 236 228 219 220 231 229 233 231 228 233 238 239 235 236 235 235
276 276 278 279 281 281 280 279 281 284 286 286 287 289 292 295 298 301 304 304 306 306 309 312 313 298 236 233 234 227 223 234 230 228 237 237 235 241 237 231 232 235 235
273 274 276 280 280 279 278 280 281 283 284 285 286 288 291 292 295 299 300 299 299 297 299 300 299 294 283 240 237 244 235 228 233 230 229 233 238 231 232 237 234 229 232
269 273 276 276 277 277 279 279 281 282 284 286 287 288 290 294 296 296 295 296 295 293 292 292 290 286 283 272 249 243 244 242 224 222 225 225 224 228 234 236 237 233 231
270 274 275 277 278 280 281 282 282 283 284 286 286 288 292 293 293 292 292 291 291 289 287 284 283 284 279 272 262 256 251 244 243 231 228 234 229 225 233 237 236 237 238
272 274 275 277 279 281 282 282 284 283 283 286 287 289 290 291 291 291 291 292 291 290 287 285 282 279 277 273 268 263 260 249 241 247 243 232 233 230 226 234 231 232 237
278 278 279 281 283 281 281 282 283 283 284 285 285 286 288 289 289 290 291 291 290 289 287 284 277 272 271 269 267 265 261 261 254 243 245 246 239 235 226 232 232 228 229
279 281 282 283 280 281 284 283 283 282 280 280 282 285 287 288 288 290 290 288 287 285 282 279 273 271 268 266 266 266 264 259 261 255 248 244 246 235 233 233 236 231 228
279 279 281 281 282 283 284 283 282 281 283 285 287 287 287 288 289 289 288 286 282 280 279 277 275 273 274 273 269 266 265 264 257 258 249 242 243 248 238 241 244 239 222
281 283 285 286 286 284 282 282 281 283 286 287 287 287 287 287 287 288 287 284 281 278 277 275 274 274 277 277 269 265 265 263 259 257 255 247 242 241 244 243 245 236 232
282 285 286 285 284 283 283 283 285 287 287 287 285 285 286 287 288 287 285 282 279 278 277 276 276 276 273 270 268 267 268 265 261 258 256 250 243 237 236 240 246 238 235
284 282 281 282 283 283 283 285 287 288 287 284 283 285 285 286 286 283 280 280 281 279 277 277 278 274 270 268 269 270 269 265 262 257 253 253 246 240 231 231 238 235 226
280 282 283 283 283 284 286 287 287 286 285 283 283 284 285 286 287 284 283 283 283 281 280 276 270 271 271 269 270 272 268 265 260 256 252 250 249 242 236 224 229 231 217
282 282 283 284 285 286 285 285 286 285 285 285 285 285 286 287 286 284 283 284 286 284 275 268 268 268 272 271 270 268 266 263 258 255 253 249 246 244 238 230 221 225 233
284 284 283 285 285 283 282 285 286 285 287 285 284 285 283 283 285 285 287 288 286 276 274 269 267 267 268 268 270 271 268 271 265 258 255 251 246 240 239 232 223 219 220
283 286 287 288 284 285 287 287 286 288 287 285 284 282 280 281 283 286 288 291 289 275 270 269 268 267 267 265 267 269 272 271 266 259 252 250 246 241 237 234 228 218 216
291 290 288 287 282 285 285 287 286 285 285 284 282 281 279 276 284 287 286 286 282 269 266 268 268 269 265 265 268 268 268 269 266 258 244 241 243 240 236 234 230 222 215
287 287 282 282 280 278 279 280 283 281 279 279 276 276 274 280 286 287 286 275 272 269 267 266 266 267 266 267 269 269 268 268 269 264 255 242 238 239 235 232 228 228 214
284 278 275 276 273 274 279 275 273 273 280 280 279 271 275 280 281 275 270 271 266 265 265 267 270 264 272 272 269 266 267 269 267 265 261 249 239 235 235 231 228 225 218
269 270 275 280 278 273 272 267 265 277 280 278 277 278 282 277 272 271 268 269 268 268 269 271 274 273 272 270 272 270 270 269 265 265 262 253 243 231 230 231 229 223 218
265 280 281 277 275 276 271 273 278 275 275 279 280 276 272 270 271 267 270 273 277 279 279 276 270 269 271 273 269 264 264 264 264 264 259 255 244 235 227 228 226 222 218